Date String (YYYY-MM-DD hh:mm:ss) UTC,Instrument flags,absolute air pressure of the measurement (hPa),sample flow rate (lpm),inlet stack bypass flow (lpm),air temperature of the measurement (°C),ambient temperature measured by the external sensor (°C),aerosol sample conditioner tube jacket temperature (°C),OPC LED temperature (°C),internal box temperature (°C),relative humidity of the measurement (%),span deviation,mass concentration of particles derived from Lorenz-Mie calculation of OPC scattering (μg/m³),mass concentration of particles derived from Lorenz-Mie calculation of OPC scattering (μg/m³),mass concentration of particles derived from Lorenz-Mie calculation of OPC scattering (μg/m³)
DateTimeUTC,F1_M11,P_M11,Q1_M11,Q2_M11,T1_M11,T2_M11,T3_M11,T4_M11,T5_M11,U1_M11,ZSPAN_M11,X0_M11,X2_M11,X1_M11
2024-04-15 15:00:00,SystemResetWarning,0818.7,5.00,000.00,026.4,025.8,000.0,034.7,028.2,009.9,0000.0,0010.82,0003.50,0002.13
2024-04-15 15:01:00,SystemResetWarning,0818.7,5.00,000.00,026.4,025.8,000.0,034.7,028.2,010.6,0000.0,0011.05,0003.49,0002.13
2024-04-15 15:02:00,SystemResetWarning,0818.7,5.01,000.00,026.4,025.8,000.0,034.7,028.2,011.0,0000.0,0010.90,0003.50,0002.14
2024-04-15 15:03:00,SystemResetWarning,0818.7,5.01,000.00,026.4,025.8,000.0,034.7,028.2,010.9,0000.0,0011.37,0003.54,0002.13
2024-04-15 15:04:00,SystemResetWarning,0818.7,5.00,000.00,026.4,025.8,000.0,034.8,028.2,010.8,0000.0,0011.35,0003.62,0002.13
2024-04-15 15:05:00,SystemResetWarning,0818.7,4.98,000.00,026.4,025.8,000.0,034.8,028.3,010.7,0000.0,0011.63,0003.69,0002.16
2024-04-15 15:06:00,SystemResetWarning,0818.7,4.99,000.00,026.4,025.9,000.0,034.8,028.3,010.9,0000.0,0011.73,0003.72,0002.16
2024-04-15 15:07:00,SystemResetWarning,0818.7,5.00,000.00,026.5,025.9,000.0,034.8,028.3,011.2,0000.0,0012.78,0003.74,0002.15
2024-04-15 15:08:00,SystemResetWarning,0818.7,5.01,000.00,026.5,025.9,000.0,034.8,028.3,010.8,0000.0,0014.37,0003.76,0002.16
2024-04-15 15:09:00,SystemResetWarning,0818.7,5.00,000.00,026.5,025.9,000.0,034.8,028.3,010.9,0000.0,0014.80,0003.78,0002.18
2024-04-15 15:10:00,SystemResetWarning,0818.6,4.99,000.00,026.5,025.9,000.0,034.8,028.3,010.9,0000.0,0015.16,0003.83,0002.20
2024-04-15 15:11:00,SystemResetWarning,0818.6,4.99,000.00,026.5,025.9,000.0,034.9,028.4,011.2,0000.0,0014.58,0003.83,0002.20
2024-04-15 15:12:00,SystemResetWarning,0818.6,5.01,000.00,026.5,026.0,000.0,034.9,028.4,011.0,0000.0,0014.57,0003.82,0002.19
2024-04-15 15:13:00,SystemResetWarning,0818.6,5.01,000.00,026.5,026.0,000.0,034.9,028.4,010.9,0000.0,0016.03,0003.79,0002.18
2024-04-15 15:14:00,SystemResetWarning,0818.7,5.00,000.00,026.6,026.0,000.0,034.9,028.4,011.4,0000.0,0016.44,0003.76,0002.19
2024-04-15 15:15:00,SystemResetWarning,0818.6,4.99,000.00,026.6,026.0,000.0,034.9,028.4,011.1,0000.0,0016.87,0003.70,0002.19
2024-04-15 15:16:00,SystemResetWarning,0818.6,4.99,000.00,026.6,026.0,000.0,034.9,028.4,011.3,0000.0,0017.33,0003.65,0002.17
2024-04-15 15:17:00,SystemResetWarning,0818.6,4.99,000.00,026.6,026.0,000.0,034.9,028.4,012.1,0000.0,0016.97,0003.59,0002.18
2024-04-15 15:18:00,SystemResetWarning,0818.6,5.00,000.00,026.6,026.1,000.0,034.9,028.4,012.0,0000.0,0015.98,0003.59,0002.18
2024-04-15 15:19:00,SystemResetWarning,0818.6,5.01,000.00,026.6,026.1,000.0,035.0,028.5,011.5,0000.0,0014.74,0003.64,0002.19
2024-04-15 15:20:00,SystemResetWarning,0818.5,5.01,000.00,026.6,026.1,000.0,035.0,028.5,012.1,0000.0,0013.91,0003.66,0002.21
2024-04-15 15:21:00,SystemResetWarning,0818.6,4.99,000.00,026.7,026.1,000.0,035.0,028.5,012.2,0000.0,0013.32,0003.62,0002.20
2024-04-15 15:22:00,SystemResetWarning,0818.6,4.99,000.00,026.7,026.1,000.0,035.0,028.5,011.6,0000.0,0013.71,0003.62,0002.23
2024-04-15 15:23:00,SystemResetWarning,0818.6,5.00,000.00,026.7,026.1,000.0,035.0,028.5,011.7,0000.0,0014.48,0003.65,0002.25
2024-04-15 15:24:00,SystemResetWarning,0818.6,5.01,000.00,026.7,026.1,000.0,035.0,028.5,012.0,0000.0,0014.03,0003.73,0002.26
2024-04-15 15:25:00,SystemResetWarning,0818.6,5.01,000.00,026.7,026.2,000.0,035.0,028.5,012.3,0000.0,0013.94,0003.76,0002.27
2024-04-15 15:26:00,SystemResetWarning,0818.6,5.00,000.00,026.7,026.2,000.0,035.1,028.6,012.3,0000.0,0014.21,0003.82,0002.27
2024-04-15 15:27:00,SystemResetWarning,0818.6,5.00,000.00,026.8,026.2,000.0,035.1,028.6,012.4,0000.0,0014.44,0003.82,0002.28
2024-04-15 15:28:00,SystemResetWarning,0818.6,4.99,000.00,026.8,026.2,000.0,035.1,028.6,012.4,0000.0,0015.07,0003.90,0002.28
2024-04-15 15:29:00,SystemResetWarning,0818.6,4.98,000.00,026.8,026.2,000.0,035.1,028.6,012.6,0000.0,0015.07,0003.97,0002.29
2024-04-15 15:30:00,SystemResetWarning,0818.6,5.00,000.00,026.8,026.2,000.0,035.1,028.6,012.7,0000.0,0014.85,0003.94,0002.29
2024-04-15 15:31:00,SystemResetWarning,0818.6,5.00,000.00,026.8,026.2,000.0,035.1,028.6,013.0,0000.0,0014.94,0003.96,0002.29
2024-04-15 15:32:00,SystemResetWarning,0818.5,5.01,000.00,026.8,026.3,000.0,035.1,028.6,013.1,0000.0,0015.19,0004.04,0002.32
2024-04-15 15:33:00,SystemResetWarning,0818.5,5.01,000.00,026.8,026.3,000.0,035.2,028.7,012.6,0000.0,0015.77,0004.06,0002.32
2024-04-15 15:34:00,SystemResetWarning,0818.5,4.99,000.00,026.9,026.3,000.0,035.2,028.7,012.5,0000.0,0015.70,0004.03,0002.32
2024-04-15 15:35:00,SystemResetWarning,0818.5,4.98,000.00,026.9,026.3,000.0,035.2,028.7,013.0,0000.0,0015.71,0003.97,0002.33
2024-04-15 15:36:00,SystemResetWarning,0818.5,5.01,000.00,026.9,026.3,000.0,035.2,028.7,012.5,0000.0,0015.47,0003.98,0002.35
2024-04-15 15:37:00,SystemResetWarning,0818.4,4.99,000.00,026.7,024.9,000.0,035.3,027.8,011.4,0000.0,0015.01,0003.95,0002.35
2024-04-15 15:38:00,SystemResetWarning,0818.3,5.00,000.00,026.3,022.9,000.0,035.3,026.7,011.0,0000.0,0014.54,0003.98,0002.35
2024-04-15 15:39:00,SystemResetWarning,0818.3,5.01,000.00,025.9,022.6,000.0,035.2,026.4,010.8,0000.0,0015.37,0003.93,0002.35
2024-04-15 15:40:00,SystemResetWarning,0818.3,5.00,000.00,025.8,022.9,000.0,035.0,026.6,011.6,0000.0,0016.12,0003.92,0002.35
2024-04-15 15:41:00,SystemResetWarning,0818.3,4.99,000.00,025.7,023.3,000.0,034.8,026.9,011.4,0000.0,0016.79,0003.90,0002.35
2024-04-15 15:42:00,SystemResetWarning,0818.3,5.00,000.00,025.8,023.7,000.0,034.7,027.2,011.6,0000.0,0017.45,0003.87,0002.34
2024-04-15 15:43:00,SystemResetWarning,0818.3,4.99,000.00,025.8,024.0,000.0,034.6,027.4,011.6,0000.0,0017.04,0003.78,0002.31
2024-04-15 15:44:00,SystemResetWarning,0818.3,5.00,000.00,025.8,024.2,000.0,034.6,027.5,011.4,0000.0,0016.23,0003.74,0002.31
2024-04-15 15:45:00,SystemResetWarning,0818.3,5.01,000.00,025.8,024.4,000.0,034.5,027.6,012.0,0000.0,0015.97,0003.74,0002.29
2024-04-15 15:46:00,SystemResetWarning,0818.3,5.00,000.00,025.9,024.6,000.0,034.5,027.6,011.6,0000.0,0015.54,0003.81,0002.29
2024-04-15 15:47:00,SystemResetWarning,0818.3,4.99,000.00,025.9,024.8,000.0,034.5,027.7,011.1,0000.0,0015.71,0003.77,0002.26
2024-04-15 15:48:00,SystemResetWarning,0818.3,4.99,000.00,025.9,025.0,000.0,034.5,027.8,010.2,0000.0,0015.05,0003.74,0002.25
2024-04-15 15:49:00,SystemResetWarning,0818.3,5.00,000.00,026.0,025.1,000.0,034.5,027.8,010.2,0000.0,0014.51,0003.66,0002.24
2024-04-15 15:50:00,SystemResetWarning,0818.3,5.01,000.00,026.0,025.3,000.0,034.5,027.9,010.6,0000.0,0013.05,0003.61,0002.24
2024-04-15 15:51:00,SystemResetWarning,0818.3,5.00,000.00,026.1,025.4,000.0,034.5,027.9,011.0,0000.0,0012.26,0003.59,0002.22
2024-04-15 15:52:00,SystemResetWarning,0818.2,5.00,000.00,026.1,025.5,000.0,034.5,028.0,011.4,0000.0,0012.65,0003.58,0002.22
2024-04-15 15:53:00,SystemResetWarning,0818.2,5.00,000.00,026.1,025.5,000.0,034.5,028.0,011.4,0000.0,0011.92,0003.56,0002.22
2024-04-15 15:54:00,SystemResetWarning,0818.1,5.01,000.00,026.2,025.6,000.0,034.5,028.0,011.0,0000.0,0012.00,0003.55,0002.20
2024-04-15 15:55:00,SystemResetWarning,0818.1,5.00,000.00,026.2,025.7,000.0,034.5,028.1,010.8,0000.0,0012.38,0003.55,0002.19
2024-04-15 15:56:00,SystemResetWarning,0818.1,5.00,000.00,026.3,025.7,000.0,034.5,028.1,011.0,0000.0,0012.68,0003.58,0002.20
2024-04-15 15:57:00,SystemResetWarning,0818.0,4.99,000.00,026.3,025.8,000.0,034.6,028.1,011.5,0000.0,0012.63,0003.53,0002.20
2024-04-15 15:58:00,SystemResetWarning,0818.0,4.99,000.00,026.2,024.5,000.0,034.6,027.4,011.5,0000.0,0012.52,0003.51,0002.22
2024-04-15 15:59:00,SystemResetWarning,0817.9,5.00,000.00,025.7,022.7,000.0,034.6,026.3,010.9,0000.0,0013.14,0003.52,0002.23
